Regional Weather Roundup
Issued by NWS

Home | Current Version | Previous Version | Text Only | Print | Product List | Glossary On
Versions: 1 2 3 4 5 6 7 8 9 10 11 12 13 14 15 16 17 18 19 20 21 22 23 24 25 26 27 28 29 30 31 32 33 34 35 36 37 38 39 40 41 42 43 44 45 46 47 48 49 50
000
ASUS42 KKEY 291810
RWRKEY

FLORIDA REGIONAL WEATHER ROUNDUP FOR THE FLORIDA KEYS
NATIONAL WEATHER SERVICE KEY WEST FLORIDA
200 PM EDT SAT APR 29 2017

...SOUTH FLORIDA AND THE KEYS...

CITY           SKY/WX    TMP DP  RH WIND       PRES   REMARKS
FORT MYERS     MOSUNNY   93  65  39 SE15G25   30.08F HX  95
SW REGIONAL AP MOSUNNY   91  64  40 E17G24    30.09F HX  92
NAPLES         MOSUNNY   91  64  40 SE16G23   30.08F HX  92
MIAMI          PTSUNNY   85  69  58 E20       30.13S
WEST KENDALL   MOSUNNY   86  68  54 SE17      30.13R
HOMESTEAD      MOSUNNY   84  73  70 E13G24    30.12S HX  91
MARATHON       MOSUNNY   86  73  65 E14G22    30.08F HX  93
BOCA CHICA NAS PTSUNNY   85  74  69 E23       30.07F HX  92
KEY WEST INTL  MOSUNNY   84  74  71 E22G29    30.07F HX  91

...INTERNATIONAL WEATHER...

CITY           SKY/WX    TMP DP  RH WIND       PRES   REMARKS
NASSAU BAHAMAS MOSUNNY   86  72  62 E13G24    30.14F HX  92
CANCUN MEXICO  PTSUNNY   86  77  74 SE18      29.91F HX  97
COZUMEL MEXICO PTSUNNY   86  77  74 SE20      29.89F HX  97

ADJACENT COASTAL WATERS...

STATION/POSITION TIME  SKY/WX   TEMP    WIND        PRES    WAVE
                                AIR SEA DIR/SP/G            HT/PER
                 (UTC)          (F)     (DEG/KT/KT) (MB)    (FT/S)
PULASKI SHOAL LI 1800            80     120/ 20/ 22 1017.4F
SAND KEY         1750            79     110/ 19/ 23 1018.6F
LONG KEY         1700            80 82  120/ 17/ 19 1019.5F
MOLASSES REEF    1700            79 80  110/ 19/ 21 1020.0F
FOWEY ROCKS      1700            79 79  100/ 17/ 19 1020.9F
Buoy 42097       1800                                 N/A     5/ 6

$$



USA.gov is the U.S. government's official web portal to all federal, state and local government web resources and services.